Regional Weather Roundup
Issued by NWS

Home | Current Version | Previous Version | Text Only | Print | Product List | Glossary Off
Versions: 1 2 3 4 5 6 7 8 9 10 11 12 13 14 15 16 17 18 19 20 21 22 23 24 25 26 27 28 29 30 31 32 33 34 35 36 37 38 39 40 41 42 43 44 45 46 47 48 49 50

000
ASUS43 KMPX 111901
RWRMN
WEATHER ROUNDUP FOR MINNESOTA
NATIONAL WEATHER SERVICE TWIN CITIES/CHANHASSEN MN
200 PM CDT FRI JUL 11 2014


NOTE: "FAIR" INDICATES FEW OR NO CLOUDS BELOW 12,000 FEET WITH NO
SIGNIFICANT WEATHER AND/OR OBSTRUCTIONS TO VISIBILITY. N/A MEANS
CURRENT SKY AND/OR WEATHER CONDITIONS ARE NOT AVAILABLE.

MNZ060>063-068>070-112000-
   Twin Cities Metro

CITY           SKY/WX    TMP DP  RH WIND       PRES   REMARKS
TWIN CITIES    MOSUNNY   78  65  63 S14G22    29.96S
ST PAUL        PTSUNNY   77  66  68 S13       29.97R
CRYSTAL        PTSUNNY   79  66  64 SW17G23   29.94F
LAKEVILLE      SUNNY     75  66  73 S13       29.96S
EDEN PRAIRIE   PTSUNNY   79  68  69 S13       29.95S
SOUTH ST PAUL  MOSUNNY   77  65  67 S16G22    29.97S
LAKE ELMO      PTSUNNY   77  66  69 SW14G28   29.99S
$$
MNZ001>005-007-008-013>017-022>024-027-028-112000-
   Northwest Minnesota

CITY           SKY/WX    TMP DP  RH WIND       PRES   REMARKS
BEMIDJI        MOSUNNY   83  66  57 W13       29.89S
HALLOCK        SUNNY     82  48  30 W16       29.87S
ROSEAU         MOSUNNY   81  61  50 NW10G21   29.86S
WARROAD        MOSUNNY   81  64  57 W10G17    29.86R
THIEF RVR FALL MOSUNNY   81  64  57 NW13G18   29.90S
CROOKSTON      SUNNY     82  66  57 NW12G17   29.91S
FOSSTON        MOSUNNY   81  66  61 W12       29.91R
DETROIT LAKES  MOSUNNY   81  70  69 NW10G16   29.94R
MOORHEAD       MOSUNNY   84  73  70 N8        29.91R HX  91
PARK RAPIDS    PTSUNNY   81  69  67 W8        29.91S
$$
MNZ006-009>011-018-025>026-112000-
   North Central Minnesota

CITY           SKY/WX    TMP DP  RH WIND       PRES   REMARKS
BAUDETTE       MOSUNNY   80  67  64 NW9       29.85R
FLAG ISLAND      N/A     77  55  47 W12       29.82S HAZE
INTL FALLS     PTSUNNY   80  69  69 SW6       29.82F THUNDER
WASKISH        SUNNY     81  72  74 SW14      29.86S
BIG FORK       MOSUNNY  N/A N/A N/A S8        29.88F
LONGVILLE      PTSUNNY   77  70  78 SW7       29.91F
GRAND RAPIDS   CLOUDY    72  66  83 SW8       29.92R
CRANE LAKE     CLOUDY    72  66  83 S5        29.88S
ORR            CLOUDY    73  64  73 SW3       29.86S
COOK           CLOUDY    70  66  88 S7        29.90S
$$
MNZ012-019>021-037-112000-
   Northeast Minnesota

CITY           SKY/WX    TMP DP  RH WIND       PRES   REMARKS
DULUTH         CLOUDY    69  65  86 SW14      29.93S
ELY            CLOUDY    68  64  88 SW8       29.90S
HIBBING        CLOUDY    71  66  84 SW9       29.91R
EVELETH        CLOUDY    68  64  88 SW14      29.92S
DULUTH HARBOR  CLOUDY    55  54  94 CALM      29.92S
TWO HARBORS    CLOUDY    70  63  78 SW13      29.90S
SILVER BAY     SUNNY     68  66  94 S10       29.89F
GRAND MARAIS     N/A     52  51  97 NE5       29.92S
G MARAIS ARPRT FOG       61  57  88 S10G18    29.94S VSB 1/4
$$
MNZ029>031-032-039>041-046>048-054>057-064-112000-
   West Central Minnesota

CITY           SKY/WX    TMP DP  RH WIND       PRES   REMARKS
FERGUS FALLS   MOSUNNY   82  66  57 W7        29.91S
WHEATON        SUNNY     82  70  65 NW5       29.93R
MORRIS         SUNNY     84  72  65 S5        29.93R
ALEXANDRIA     CLOUDY    80  70  71 W6        29.96R
ELBOW LAKE     FAIR      81  70  69 NW6       29.92S
WADENA         SUNNY     81  70  69 W7        29.92S
GLENWOOD       SUNNY     77  72  83 S9        29.96R
APPLETON       SUNNY     88  70  55 SW5       29.92S HX  92
BENSON         PTSUNNY   82  72  69 SW7       29.92F
ORTONVILLE     MOSUNNY   86  70  58 NW3       29.92S HX  90
MADISON        SUNNY     86  72  62 SE3       29.92S HX  92
WILLMAR        FAIR      75  68  78 SE3       29.96S
$$
MNZ033>034-036-042>043-049>051-058-059-112000-
   Central Minnesota

CITY           SKY/WX    TMP DP  RH WIND       PRES   REMARKS
ST CLOUD       CLOUDY    74  67  78 S15       29.95S
SAUK CENTRE    CLOUDY    74  69  84 S12       29.95R
PAYNESVILLE    HVY RAIN  69  66  92 SE7       29.96S
AITKIN         CLOUDY    75  68  78 SW6       29.92R
PINE RIVER     MOSUNNY   79  70  73 W6        29.95S
BRAINERD       CLOUDY    78  68  71 SW9       29.93R
STAPLES        SUNNY     81  70  69 SW7       29.92F
LONG PRAIRIE   CLOUDY    73  70  88 S12       29.95R
LITTLE FALLS   PTSUNNY   72  64  78 S9G17     29.95R
LITCHFIELD     CLOUDY    73  72  94 S5        29.96S
BUFFALO        CLOUDY    73  66  79 S5        29.96F
MAPLE LAKE     CLOUDY    74  69  85 S5        29.97S
$$
MNZ037-044-045-052-053-112000-
   East Central Minnesota

CITY           SKY/WX    TMP DP  RH WIND       PRES   REMARKS
PRINCETON      CLOUDY    73  66  78 S9        29.96R
MORA           CLOUDY    72  64  78 SW12G17   29.96S
CAMBRIDGE      MOSUNNY   75  64  69 SW7G16    29.95R
RUSH CITY      CLOUDY    74  66  77 S7        29.96R
MOOSE LAKE     CLOUDY    70  64  83 SW10      29.92S
HINCKLEY       CLOUDY    73  68  83 S9        29.95S
CLOQUET        CLOUDY    70  64  83 SW13G18   29.93S
MCGREGOR       CLOUDY    72  66  83 SW10      29.94R
$$
MNZ071>073-080-081-089-090-097-098-112000-
   Southwest Minnesota

CITY           SKY/WX    TMP DP  RH WIND       PRES   REMARKS
MONTEVIDEO     PTSUNNY   84  73  70 S6        29.93F HX  91
GRANITE FALLS  CLOUDY    79  70  74 S10       29.95R
CANBY          PTSUNNY   84  71  65 SW6       29.94S
MARSHALL       CLOUDY    77  68  73 SW17      29.94R
REDWOOD FALLS  CLOUDY    78  69  73 SW16      29.95R
OLIVIA         CLOUDY    77  68  73 S9        29.94F
PIPESTONE      PTSUNNY   77  70  78 SW12      29.98S
WINDOM         MOSUNNY   81  68  65 SW15      29.97F
WORTHINGTON    CLOUDY    75  70  83 SW12G20   30.00S
JACKSON        SUNNY     81  66  61 SW12G17   30.00R
TRACY          CLOUDY    77  69  76 S14       29.97S
SLAYTON        CLOUDY    74  68  80 S8G17     29.99S
$$
MNZ065>067-074>077-082>085-091>093-112000-
   South Central Minnesota

CITY           SKY/WX    TMP DP  RH WIND       PRES   REMARKS
MANKATO        CLOUDY    81  66  61 SW14      29.97F
NEW ULM        SUNNY     79  70  73 SW13      29.95S
ST JAMES       PTSUNNY   82  66  57 S13G21    29.97S
FAIRMONT       CLOUDY    81  64  57 S13G20    29.98S
GLENCOE        PTSUNNY   77  66  69 SW8G16    29.96R
FARIBAULT      MOSUNNY   79  63  57 S15       29.99F
OWATONNA       SUNNY     79  66  65 S15       30.00F
WASECA         PTSUNNY   77  63  61 S12       30.01S
ALBERT LEA     PTSUNNY   77  66  69 S8        30.01S
$$
MNZ078>079-086>088-094>096-112000-
   Southeast Minnesota

CITY           SKY/WX    TMP DP  RH WIND       PRES   REMARKS
ROCHESTER      MOSUNNY   74  65  73 S16G23    30.04F
RED WING       PTSUNNY   73  64  73 SE9       29.98F
STANTON        MOSUNNY   78  66  67 S12G22    29.96F
DODGE CENTER   MOSUNNY   75  66  73 S18G24    30.02F
WINONA         LGT RAIN  66  61  82 SW12G28   29.99F
AUSTIN         PTSUNNY   75  64  69 S9G18     30.03S
PRESTON        PTSUNNY   73  63  71 S15       30.07S
$$
ABBREVIATIONS USED IN REMARKS
   TC - TEMPERATURES IN CELSIUS
  WCI - WIND CHILL INDEX
   HX - HEAT INDEX
  VSB - VISIBILITY
$$



USA.gov is the U.S. government's official web portal to all federal, state and local government web resources and services.